Tracking 21076 objects as of 9-Aug-2020
HD Live streaming from Space Station
objects crossing your sky now
Track the most recent launched group of Starlink satellites

OSCAR 8

Track OSCAR 8 now!
10-day predictions
OSCAR 8 is classified as:


NORAD ID: 10703
Int'l Code: 1978-026B
Perigee: 897.5 km
Apogee: 909.4 km
Inclination: 99.0 °
Period: 102.9 minutes
Semi major axis: 7274 km
RCS: 0.4491 m2 (medium)
Launch date: March 5, 1978
Source: United States (US)
Launch site: AIR FORCE WESTERN TEST RANGE (AFWTR)

Uplink (MHz): 145.850-145.900
Downlink (MHz): 29.400- 29.500
Beacon (MHz): 29.402
Mode: SSB CW
Call sign:
Status: Inactive


Uplink (MHz): 145.900-146.000
Downlink (MHz): 435.200-435.100
Beacon (MHz): 435.095
Mode: SSB CW
Call sign:
Status: Inactive

aabbcc
Your satellite tracking list
Your tracking list is empty




NASA's NSSDC Master Catalog

Two Line Element Set (TLE):
1 10703U 78026B   20221.89206451 +.00000294 +00000-0 +23257-3 0  9993
2 10703 099.0491 175.7385 0008136 047.5962 017.1306 13.99270805164982
Source of the keplerian elements: AFSPC